Location: Beccas
(43.4309°N, 0.1528°E)
Time: 13:04:48
(UTC+00:00)

Cosmos 1703 - Pass Details

Date: 31 May 2022
Orbit: 518 x 535 km, 82.5° (Epoch: 03 July)

Event Time Altitude Azimuth Distance (km) Brightness Sun altitude
Exits shadow 00:40:32 11° 98° (E) 1,728 5.9 -23.9°
Maximum altitude 00:41:25 12° 84° (E) 1,685 6.0 -23.9°
Drops below altitude 10° 00:42:49 10° 64° (ENE) 1,789 6.4 -23.8°
Sets 00:46:16 0° 31° (NNE) 2,683 8.0 -23.7°
